Вернуться в каталог

FENGYUN 1C DEB

АктивенSSO
NORAD 30560·DEBRIS·🇨🇳 China

Запущен May 10, 1999 с Taiyuan Satellite Launch Center

Loading…

Ближайшие Пролёты (ближайшие 24 часа)

TLE

СвежийSource: Space-Track

Эпоха: Sep 14, 2026, 11:35 UTC

1 30560U 99025ALA 26257.48266770  .00000254  00000-0  13729-3 0  9997
2 30560  98.6820 249.5787 0115778 139.8840  11.4376 14.17329489 12758

Отслеживайте FENGYUN 1C DEB в реальном времени с AllMySat

Download on the App Store